CDT,Max TemperatureF,Mean TemperatureF,Min TemperatureF,Max Dew PointF,MeanDew PointF,Min DewpointF,Max Humidity, Mean Humidity, Min Humidity, Max Sea Level PressureIn, Mean Sea Level PressureIn, Min Sea Level PressureIn, Max VisibilityMiles, Mean VisibilityMiles, Min VisibilityMiles, Max Wind SpeedMPH, Mean Wind SpeedMPH, Max Gust SpeedMPH,PrecipitationIn, CloudCover, Events, WindDirDegrees
2013-7-1,85,70,54,59,54,50,86,60,33,30.19,30.14,30.10,10,9,6,15,6,18,0.00,1,,3
2013-7-2,84,71,58,60,56,52,87,61,34,30.17,30.10,30.05,10,10,9,18,4,22,T,4,Rain-Thunderstorm,308
2013-7-3,85,72,58,62,57,53,93,64,34,30.06,30.01,29.95,10,9,6,14,4,16,0.00,2,Fog,145
2013-7-4,87,74,61,58,56,53,78,55,31,29.99,29.94,29.88,10,10,10,24,12,29,0.00,1,,163
2013-7-5,88,78,68,65,60,56,66,55,43,29.91,29.87,29.82,10,10,10,25,14,30,0.00,5,,163
2013-7-6,90,80,69,65,63,61,73,59,44,29.86,29.83,29.78,10,10,10,26,15,35,0.00,4,,161
2013-7-7,93,84,75,72,65,60,69,54,39,29.88,29.83,29.79,10,10,10,21,10,26,0.00,6,,178
2013-7-8,91,84,76,72,69,65,82,65,47,29.94,29.91,29.87,10,10,10,17,7,22,T,6,Rain-Thunderstorm,167
2013-7-9,96,86,76,76,71,66,82,64,46,29.94,29.88,29.85,10,9,1,17,8,25,0.29,5,Rain-Thunderstorm,142
2013-7-10,85,77,68,71,64,58,90,67,43,30.08,30.03,29.94,10,10,7,18,6,22,0.00,2,,18
2013-7-11,87,75,63,64,60,56,93,67,40,30.09,30.03,29.95,10,10,10,20,10,24,0.00,1,,151
2013-7-12,91,80,69,68,62,58,70,59,47,30.00,29.95,29.89,10,10,10,25,17,30,0.00,2,,150
2013-7-13,89,81,73,72,65,60,68,61,53,29.96,29.93,29.90,10,10,9,23,16,29,0.06,6,Rain,149
2013-7-14,88,80,71,63,60,57,68,52,36,30.14,30.04,29.98,10,10,10,24,13,28,0.00,5,,141
2013-7-15,89,76,63,68,65,61,87,67,46,30.19,30.15,30.10,10,10,7,16,5,22,0.00,2,,138
2013-7-16,92,82,71,69,66,62,90,66,41,30.24,30.20,30.16,10,10,9,15,6,21,0.00,1,,155
2013-7-17,94,84,73,70,68,65,87,63,39,30.28,30.22,30.14,10,10,10,16,6,20,T,1,,166
2013-7-18,95,85,74,70,67,63,87,62,36,30.15,30.03,29.90,10,10,10,23,12,31,0.00,1,,182
2013-7-19,95,83,71,68,64,59,79,56,32,29.92,29.89,29.85,10,10,10,16,6,24,T,3,,261
2013-7-20,90,79,68,65,61,57,81,58,34,29.99,29.91,29.84,10,10,10,18,5,22,0.00,5,,77
2013-7-21,89,80,70,73,68,63,87,67,47,29.90,29.81,29.76,10,10,10,23,6,29,T,5,Rain-Thunderstorm,141
2013-7-22,95,83,71,75,70,65,93,68,42,29.84,29.76,29.72,10,10,10,16,8,21,T,3,Rain-Thunderstorm,176
2013-7-23,84,75,66,65,62,58,87,67,46,30.00,29.92,29.82,10,10,10,20,8,24,0.02,4,Rain,29
2013-7-24,85,71,57,62,58,56,90,65,40,30.08,30.04,30.00,10,10,10,14,5,17,0.00,3,,29
2013-7-25,84,77,70,66,62,59,79,63,46,30.03,30.00,29.96,10,10,10,21,10,28,0.01,7,Rain,178
2013-7-26,80,70,59,66,59,51,93,66,39,30.11,30.04,29.96,10,10,7,25,10,32,0.00,3,,348
2013-7-27,75,64,53,54,48,43,93,63,33,30.14,30.08,30.01,10,10,10,20,8,26,0.00,2,,345
2013-7-28,79,64,48,51,48,43,100,65,29,30.08,30.05,30.01,10,10,10,12,3,17,0.00,3,,24
2013-7-29,69,62,55,63,56,48,93,77,60,30.07,30.05,30.01,10,9,3,20,8,23,0.05,7,Rain,130
2013-7-30,75,70,65,65,64,63,100,85,69,30.10,30.06,30.03,10,6,1,13,5,16,0.01,8,Rain,17
2013-7-31,86,73,60,67,63,59,100,73,45,30.15,30.10,30.03,10,6,0,10,3,16,0.00,4,Fog,343